Flag for Germany Weather past 2 weeks in Waren (Müritz), Mecklenburg-Western Pomerania, Germany

Now
88 °F

Partly sunny.


Feels Like: 87 °F
Forecast: 65 / 93 °F
Wind: 6 mph from Southeast

Location: Laage

Current Time: Jul 3, 2015 at 5:39:48 PM

Latest Report: Jul 3, 2015 at 4:20 PM


Visibility: N/A

Pressure: 30.24 "Hg

Humidity: 35%

Dew point: 57 °F

Location of Waren (Müritz)Location

Historic Weather in Waren (Müritz) — Graph

°F

Waren (Müritz) temperature yesterday

Maximum temperature yesterday: 82 °F (at 3:20 PM)
Minimum temperature yesterday: 57 °F (at 2:20 AM)
Average temperature yesterday: 71 °F

Past Weeks' High & Low Weather Summary

 TemperatureHumidityPressure
High88 °F (Jul 3, 4:20 PM)100% (Jun 20, 3:20 AM)30.30 "Hg (Jun 20, 3:20 AM)
Low48 °F (Jun 19, 12:20 AM)33% (Jul 3, 2:45 PM)29.59 "Hg (Jun 23, 1:20 AM)
Average60 °F76%30.01 "Hg
* Reported Jun 18 4:20 PM — Jul 3 4:20 PM, Waren (Müritz), Weather by CustomWeather, © 2015

Note: Actual official high and low records may vary slightly from our data, if they occured in-between our weather recording intervals... More about our weather records

Advertising

Waren (Müritz) weather history for previous 24 hours

 ConditionsComfort  
Time TempWeatherWind HumidityBarometerVisibility
4:20 PM
Fri, Jul 3
88 °FPartly sunny.6 mph35%30.24 "HgN/A
3:20 PM86 °FPartly sunny.5 mph33%30.24 "HgN/A
2:45 PM86 °FPartly sunny.7 mph33%30.24 "HgN/A
2:20 PM86 °FPartly sunny.7 mph35%30.24 "HgN/A
1:20 PM86 °FScattered clouds.8 mph35%30.24 "HgN/A
12:20 PM84 °FPassing clouds.10 mph37%30.24 "HgN/A
11:20 AM82 °FPassing clouds.9 mph42%30.27 "HgN/A
10:20 AM79 °FPassing clouds.9 mph48%30.27 "HgN/A
9:20 AM75 °FPassing clouds.8 mph54%30.27 "HgN/A
8:20 AM72 °FPassing clouds.8 mph57%30.27 "HgN/A
7:20 AM66 °FPassing clouds.7 mph68%30.27 "HgN/A
6:20 AM61 °FPassing clouds.5 mph77%30.27 "HgN/A
5:20 AM59 °FPassing clouds.6 mph77%30.27 "HgN/A
4:20 AM59 °FCool.6 mph77%30.27 "HgN/A
3:20 AM61 °FCool.8 mph77%30.27 "HgN/A
2:20 AM63 °FMild.7 mph77%30.27 "HgN/A
1:20 AM63 °FMild.7 mph77%30.24 "HgN/A
12:20 AM64 °FMild.9 mph78%30.24 "HgN/A
11:20 PM
Thu, Jul 2
64 °FMild.10 mph78%30.27 "HgN/A
10:20 PM66 °FPassing clouds.7 mph73%30.24 "HgN/A
9:20 PM70 °FMild.10 mph64%30.24 "HgN/A
8:20 PM75 °FMild.13 mph50%30.24 "HgN/A
7:20 PM79 °FWarm.17 mph45%30.24 "HgN/A
6:20 PM81 °FPleasantly warm.20 mph39%30.24 "HgN/A
5:57 PM81 °FPleasantly warm.20 mph37%30.24 "HgN/A
5:20 PM81 °FPleasantly warm.16 mph39%30.24 "HgN/A
Weather by CustomWeather, © 2015

See weather overviewHow to use our weather pages